Regional Weather Roundup
Issued by NWS

Home | Current Version | Previous Version | Text Only | Print | Product List | Glossary On
Versions: 1 2 3 4 5 6 7 8 9 10 11 12 13 14 15 16 17 18 19 20 21 22 23 24 25 26 27 28 29 30 31 32 33 34 35 36 37 38 39 40 41 42 43 44 45 46 47 48 49 50
000
ASUS45 KBOU 121510
RWRCO

WEATHER ROUNDUP FOR COLORADO
NATIONAL WEATHER SERVICE DENVER/BOULDER CO
900 AM MDT SAT JUL 12 2014

NOTE: "FAIR" INDICATES FEW OR NO CLOUDS BELOW 12000 FEET WITH NO
SIGNIFICANT WEATHER AND/OR OBSTRUCTIONS TO VISIBILITY.

COZ001>005-013-030-031-121600-
...NORTHWEST COLORADO...

CITY           SKY/WX    TMP DP  RH WIND       PRES   REMARKS
CRAIG          SUNNY     63  60  90 NE6       30.33R
HAYDEN         MOSUNNY   64  54  68 E10       30.34R
MEEKER         SUNNY     67  52  58 CALM      30.32R
MOUNT WERNER   NOT AVBL
STEAMBOAT SPGS PTSUNNY   61  55  81 W5        30.36S
WALDEN         PTSUNNY   55  50  82 CALM      30.44R
$$

COZ006>008-011-121600-
...WEST CENTRAL VALLEYS...

CITY           SKY/WX    TMP DP  RH WIND       PRES   REMARKS
GRAND JUNCTION SUNNY     78  51  38 SE12      30.20R
MONTROSE       MOSUNNY   75  51  43 E6        30.29R
EAGLE          MOSUNNY   63  59  88 W5        30.39R
RIFLE          SUNNY     69  57  65 N5        30.28R
DELTA          MOSUNNY   77  53  42 CALM      30.25S
NUCLA          MOSUNNY   75  46  35 E5        30.32S
$$

COZ017>023-064>068-121600-
...SOUTHWEST COLORADO...

CITY           SKY/WX    TMP DP  RH WIND       PRES   REMARKS
DURANGO        MOSUNNY   64  57  78 CALM      30.35R
CORTEZ         SUNNY     71  54  54 CALM      30.29S
PAGOSA SPRINGS MOSUNNY   66  51  58 CALM      30.41F
TELLURIDE      MOSUNNY   63  48  59 CALM      30.51S
WOLF CREEK PAS NOT AVBL
$$

COZ009-010-012-014-032>034-037-058>063-121600-
...CENTRAL COLORADO...

CITY           SKY/WX    TMP DP  RH WIND       PRES   REMARKS
ASPEN          MOSUNNY   63  50  62 N5        30.42S
BUENA VISTA    MOSUNNY   64  48  54 NW7       30.43S
COPPER MTN     MOSUNNY   55  43  62 W7        30.72S
BERTHOUD PASS  FAIR      45  32  61 MISG      30.75R THUNDER
COTTONWOOD PAS MOSUNNY   63  46  55 SE3       30.56S
GUNNISON       MOSUNNY   61  50  67 N3        30.47R
KREMMLING      MOSUNNY   61  52  72 CALM      30.43S
LEADVILLE      CLOUDY    58  46  64 CALM      30.55S
MONARCH PASS   SUNNY     52  43  71 SW9       30.82R
SALIDA         MOSUNNY   69  49  49 CALM      30.46S
SUNLIGHT       SUNNY     59  50  72 CALM      30.64R
WILKERSON PASS PTSUNNY   55  41  58 NW9       30.69R
$$

COZ069>075-121600-
...SAN LUIS VALLEY/SANGRE DE CRISTO MOUNTAINS...

CITY           SKY/WX    TMP DP  RH WIND       PRES   REMARKS
ALAMOSA        SUNNY     65  49  56 VRB3      30.41S
LA VETA PASS   SUNNY     57  45  62 W6        30.58R
SAGUACHE       NOT AVBL
$$

COZ035-036-038>040-121600-
...NORTHERN COLORADO FRONT RANGE...

CITY           SKY/WX    TMP DP  RH WIND       PRES   REMARKS
DENVER INTL AP PTSUNNY   68  62  81 NE13      30.25R FOG
DMNS CITY PARK   N/A     71  60  69 N7G14     30.24R
AURORA         NOT AVBL
FRONT RANGE AP PTSUNNY   70  64  83 N12       30.26
ERIE MUNI ARPT MOSUNNY   69  62  78 NE9       30.24R
BOULDER MUN AP CLOUDY    68  63  83 N7        30.24S
CENTENNIAL     PTSUNNY   69  58  67 E3        30.26R
BROOMFIELD     PTSUNNY   73  61  64 N10       30.26R
FORT COLLINS   PTSUNNY   66  61  82 NE8       30.27R
LONGMONT       PTSUNNY   72  63  71 NE9       30.26R
$$

COZ041-046-047-076>085-087-088-121600-
...PIKES PEAK/PALMER DIVIDE AND SOUTHERN FOOTHILLS...

CITY           SKY/WX    TMP DP  RH WIND       PRES   REMARKS
COLO. SPRINGS  PTSUNNY   72  55  55 SW3       30.29S
A. F. ACADEMY  NOT AVBL
ELLICOTT       PTSUNNY   71  59  65 CALM      30.27S
FALCON         PTSUNNY   68  54  60 SW7       30.34S
FORT CARSON    NOT AVBL
LIMON          PTSUNNY   73  60  63 N10       30.23R
MONUMENT HILL  PTSUNNY   68  52  56 S9        30.33R
TRINIDAD       SUNNY     75  52  44 W7        30.26F
$$

COZ042>045-048>051-090-091-121600-
...NORTHEAST COLORADO...

CITY           SKY/WX    TMP DP  RH WIND       PRES   REMARKS
GREELEY ARPT   NOT AVBL
AKRON          PTSUNNY   70  64  81 N8        30.21R
BURLINGTON     CLOUDY    71  64  78 N13       30.16R
WRAY           CLOUDY    69  66  89 NW8       30.14S
STERLING       PTSUNNY   75  68  78 N9        30.17R
HOLYOKE        CLOUDY    70  64  83 N13       30.15R
FORT MORGAN    CLOUDY    71  62  73 N6        30.22R
$$

COZ086-089-092>099-121600-
...SOUTHEAST COLORADO...

CITY           SKY/WX    TMP DP  RH WIND       PRES   REMARKS
PUEBLO         MOSUNNY   74  59  59 W5        30.19S
LA JUNTA       SUNNY     77  61  57 S5        30.16S
LAMAR          SUNNY     80  61  52 N7        30.10F
SPRINGFIELD      N/A     80  55  42 NW10      30.16S
$$



USA.gov is the U.S. government's official web portal to all federal, state and local government web resources and services.